GEFSNGP_con_probscp_192.txt.gz
Probability
0 0 0 0 0 0 0 1 3 6 12 21 25 25 28 34 35 35 34 35 37 37 35 33 32 31 32 31 29 27 25 22 20 17 15 12 11 10 9 8 6 5 4 3
0 0 0 0 0 0 1 2 4 8 13 19 24 25 28 33 36 37 37 38 38 38 37 36 35 33 32 30 28 27 25 20 18 17 14 11 10 9 9 8 7 6 4 4
0 0 0 0 0 2 3 4 7 12 17 22 27 30 32 36 39 41 41 41 40 38 38 39 37 34 31 28 27 27 25 20 17 15 13 10 8 7 7 6 6 7 6 4
0 0 0 0 1 4 7 9 12 18 25 31 36 39 40 42 43 43 43 43 41 39 38 39 38 35 31 28 27 26 24 20 17 15 13 11 9 8 7 6 6 7 6 5
0 0 0 0 3 8 12 14 18 26 34 41 47 48 45 44 45 45 45 43 41 40 39 37 36 35 33 30 28 27 25 21 18 16 15 13 11 10 9 9 8 7 6 6
0 0 0 2 7 12 16 18 21 29 40 46 46 43 40 43 47 48 46 44 43 43 41 37 35 35 34 32 31 29 27 24 18 16 15 13 12 11 11 11 9 6 6 7
0 0 2 6 11 15 18 21 24 31 41 44 39 36 38 44 48 50 50 49 47 45 43 38 34 34 35 34 32 30 27 24 19 15 14 13 12 11 10 9 8 6 6 6
0 1 4 9 14 17 21 26 31 34 39 41 40 41 45 48 48 49 51 51 49 46 43 39 36 35 34 31 29 27 24 20 18 17 16 15 13 11 8 7 7 6 5 4
8 9 12 18 23 26 30 34 36 36 38 43 46 50 52 51 48 47 47 48 47 44 42 38 35 33 31 28 26 24 20 17 16 17 17 16 14 11 7 5 6 6 4 2
21 22 25 30 34 36 38 42 41 40 42 46 49 50 50 48 45 42 41 40 39 39 37 34 31 29 27 25 24 20 17 15 14 15 15 13 11 9 7 6 6 6 4 3
29 31 34 38 39 39 42 46 46 46 46 47 46 45 44 42 39 36 33 31 31 31 30 26 24 23 21 20 18 16 14 14 13 12 10 8 7 6 6 6 5 4 3 2
30 32 36 38 39 42 45 46 47 48 47 45 43 41 39 36 34 31 27 25 24 23 22 21 20 19 17 15 14 12 12 12 11 9 7 4 4 3 3 2 2 1 1 1
27 31 35 36 38 41 42 42 43 44 43 41 38 36 34 30 28 26 23 21 20 18 17 18 18 17 15 12 11 11 11 10 9 7 5 3 3 2 1 0 0 0 0 0
26 29 31 33 36 37 36 37 38 38 37 34 31 29 27 23 21 20 19 17 16 15 14 14 14 13 10 9 9 9 9 9 7 6 4 3 2 1 0 0 0 0 0 0
27 27 28 30 33 33 33 33 33 31 29 25 22 21 20 18 16 14 13 12 11 11 11 11 10 8 7 7 7 8 8 7 6 6 4 3 2 1 0 0 0 0 0 0
25 24 25 27 30 30 30 29 28 26 23 19 16 15 15 15 13 10 8 6 4 5 6 6 6 5 5 5 5 4 4 4 4 4 4 3 3 2 1 0 0 0 0 0
19 18 19 22 24 24 23 21 20 20 18 15 12 11 12 11 8 6 4 2 1 1 2 2 2 2 2 2 1 1 1 1 1 2 2 3 3 3 2 0 0 0 0 0
12 12 13 16 17 15 13 13 13 13 12 10 9 9 10 7 4 2 1 0 0 0 0 0 0 0 0 0 0 0 0 0 0 0 1 2 2 2 1 0 0 0 0 0
8 8 9 12 12 9 7 8 9 8 7 7 7 8 7 4 1 0 0 0 0 0 0 0 0 0 0 0 0 0 0 0 0 0 0 1 1 1 0 0 0 0 0 0
6 6 6 9 10 7 5 6 6 6 5 6 6 6 4 2 0 0 0 0 0 0 0 0 0 0 0 0 0 0 0 0 0 0 0 0 0 0 0 0 0 0 0 0
4 4 5 7 8 6 5 5 6 6 6 6 5 4 3 1 0 0 0 0 0 0 0 0 0 0 0 0 0 0 0 0 0 0 0 0 0 0 0 0 0 0 0 0
2 2 4 5 6 5 4 4 6 7 7 6 5 4 2 1 0 0 0 0 0 0 0 0 0 0 0 0 0 0 0 0 0 0 0 0 0 0 0 0 0 0 0 0
3 4 5 5 5 3 3 3 4 6 6 5 4 3 3 1 0 0 0 0 0 0 0 0 0 0 0 0 0 0 0 0 0 0 0 0 0 0 0 0 0 0 0 0
5 6 6 5 3 2 2 1 2 2 3 3 3 3 3 2 0 0 0 0 0 0 0 0 0 0 0 0 0 0 0 0 0 0 0 0 0 0 0 0 0 0 0 0
4 4 3 2 1 0 0 0 0 0 1 1 2 2 2 1 0 0 0 0 0 0 0 0 0 0 0 0 0 0 0 0 0 0 0 0 0 0 0 0 0 0 0 0
1 1 1 0 0 0 0 0 0 0 0 0 1 1 1 0 0 0 0 0 0 0 0 0 0 0 0 0 0 0 0 0 0 0 0 0 0 0 0 0 0 0 0 0
0 0 0 0 0 0 0 0 0 0 0 0 0 0 0 0 0 0 0 0 0 0 0 0 0 0 0 0 0 0 0 0 0 0 0 0 0 0 0 0 0 0 0 0

GEFSNGP_con_probscp_198.txt.gz
Probability
0 0 0 0 0 0 0 0 0 0 1 5 9 12 14 15 17 21 22 21 18 18 17 15 14 15 14 11 9 11 12 10 7 4 2 1 1 2 2 1 0 0 0 0
0 0 0 0 0 0 0 0 0 1 3 7 10 12 14 15 16 19 22 20 18 17 17 17 16 17 16 13 10 11 12 11 7 4 3 2 2 2 2 2 1 0 0 0
0 0 0 0 0 0 1 1 2 3 6 11 13 13 13 15 15 17 18 15 14 15 15 16 17 19 18 14 11 11 13 12 8 5 4 4 3 3 4 3 1 0 0 1
0 0 0 0 0 2 3 4 5 7 12 17 18 15 13 13 14 15 13 11 12 15 16 15 16 18 18 15 12 12 13 13 10 6 4 3 3 3 4 3 1 1 1 2
0 0 0 0 1 3 5 5 6 11 20 24 23 18 13 12 14 13 12 12 14 18 20 19 18 20 19 16 14 12 13 13 12 9 6 3 1 1 1 1 1 1 2 3
0 0 0 0 2 4 4 3 5 14 26 29 24 19 15 15 16 16 15 16 18 21 23 23 23 23 22 19 16 14 13 13 12 10 7 4 2 1 1 1 1 1 3 3
0 0 0 1 4 5 2 2 6 15 25 27 21 16 18 21 22 22 21 22 23 24 25 24 25 26 24 20 17 16 16 14 10 7 5 4 4 4 4 3 3 3 3 3
0 0 0 2 5 4 2 3 9 15 19 20 18 17 20 25 26 25 25 26 27 28 26 24 23 25 25 20 16 16 15 11 7 4 4 5 6 6 6 5 4 3 3 3
1 2 4 4 3 3 3 6 11 14 15 16 19 20 22 26 27 25 24 26 28 27 25 22 22 23 23 19 14 13 12 9 6 5 6 7 8 9 8 6 4 3 3 2
5 9 12 10 6 5 7 10 14 15 15 17 20 21 23 26 26 23 21 22 25 23 21 19 20 20 19 16 12 10 10 8 7 6 8 9 9 10 9 7 4 4 4 3
10 12 16 15 11 8 10 14 18 20 20 22 22 23 24 25 25 23 20 20 22 20 18 17 18 17 16 14 11 9 8 8 8 9 9 8 7 7 6 4 3 4 4 3
9 10 14 15 12 11 13 17 22 25 27 26 25 24 24 24 24 23 21 20 19 18 17 16 16 15 14 12 11 9 7 7 9 10 9 7 4 2 1 1 1 1 1 1
5 8 12 13 13 13 15 19 24 27 27 25 24 23 23 23 22 21 19 18 17 16 14 15 16 15 13 11 10 8 7 7 8 9 8 5 2 0 0 0 0 0 0 0
7 9 11 11 11 13 16 20 22 23 22 21 21 20 21 22 21 18 17 16 16 14 13 13 14 12 11 9 8 7 7 6 6 6 5 3 1 0 0 0 0 0 0 0
12 11 10 9 10 12 17 20 20 19 19 20 20 19 19 19 18 17 15 14 15 14 13 12 11 10 9 7 6 6 6 6 5 4 3 1 0 0 0 0 0 0 0 0
13 11 9 9 11 13 17 19 19 18 19 20 20 18 17 16 15 14 13 13 13 12 10 9 9 8 7 5 4 4 4 3 3 1 1 0 0 0 0 0 0 0 0 0
9 8 7 9 12 14 15 17 18 17 16 17 16 16 15 13 11 10 9 11 11 10 8 7 6 5 4 4 3 3 2 1 1 0 0 0 0 0 0 1 1 0 0 0
5 4 4 6 9 12 13 12 12 11 11 10 10 12 12 9 6 5 6 8 9 8 5 4 3 3 3 3 2 2 1 0 0 0 0 0 0 0 0 1 1 0 0 0
3 3 3 3 5 8 8 7 6 6 6 6 7 9 9 7 4 3 3 5 6 5 3 1 1 2 2 1 1 1 0 0 0 0 0 0 0 0 0 1 1 0 0 0
3 3 2 2 2 3 4 4 3 3 3 4 7 7 7 5 3 1 1 2 3 2 1 0 0 1 1 0 0 0 0 0 0 0 0 0 0 0 0 0 0 0 0 0
2 2 1 1 1 1 2 2 2 2 2 3 4 5 4 4 3 1 0 0 1 1 0 0 0 0 0 0 0 0 0 0 0 0 0 0 0 0 0 0 0 0 0 0
1 1 1 0 0 0 1 1 1 1 1 2 3 3 3 3 2 1 0 0 0 0 0 0 0 0 0 0 0 0 0 0 0 0 0 0 0 0 0 0 0 0 0 0
0 0 0 0 0 0 0 0 0 0 0 1 3 3 3 3 2 1 0 0 0 0 0 0 0 0 0 0 0 0 0 0 0 0 0 0 0 0 0 0 0 0 0 0
0 0 0 0 0 0 0 0 0 0 0 1 2 3 3 3 3 1 1 0 0 0 0 0 0 0 0 0 0 0 0 0 0 0 0 0 0 0 0 0 0 0 0 0
0 0 0 0 0 0 0 0 0 0 0 0 1 2 3 3 3 3 2 1 0 0 0 0 0 0 0 0 0 0 0 0 0 0 0 0 0 0 0 0 0 0 0 0
0 0 0 0 0 0 0 0 0 0 0 0 0 1 2 3 3 3 3 1 0 0 0 0 0 0 0 0 0 0 0 0 0 0 0 0 0 0 0 0 0 0 0 0
0 0 0 0 0 0 0 0 0 0 0 0 0 0 1 2 3 3 3 2 1 0 0 0 0 0 0 0 0 0 0 0 0 0 0 0 0 0 0 0 0 0 0 0

GEFSNGP_con_probscp_204.txt.gz
Probability
0 0 0 0 0 0 0 0 0 1 3 6 8 15 24 30 32 37 43 48 48 45 40 34 31 31 30 27 23 22 24 25 25 23 22 20 17 17 17 15 15 15 13 10
0 0 0 0 0 1 1 2 3 3 5 6 10 18 27 34 38 42 48 52 52 48 42 36 32 32 32 29 26 24 25 26 25 23 21 20 19 19 18 17 17 16 13 9
0 0 0 0 0 1 3 4 5 6 7 7 11 21 30 36 42 45 48 53 53 49 43 36 32 33 34 32 31 29 29 29 27 24 23 23 23 22 20 19 20 18 13 10
0 0 0 0 0 1 2 4 5 6 7 8 15 25 32 36 41 43 43 46 47 44 39 33 31 33 35 35 34 34 33 31 28 27 27 27 26 25 23 23 23 21 16 13
0 0 0 0 0 0 0 1 4 6 8 12 19 26 31 35 39 41 40 40 41 41 37 33 31 34 36 36 35 35 35 32 28 26 26 26 28 28 27 25 24 22 17 14
0 0 0 0 0 0 0 1 4 7 11 16 21 25 31 35 38 41 40 38 40 41 38 37 37 39 39 37 36 36 34 31 28 27 25 25 27 29 28 25 23 19 15 13
0 0 1 2 3 3 4 5 7 9 12 18 21 26 33 37 40 43 41 40 41 41 41 43 44 45 46 42 38 36 34 31 29 30 29 26 26 27 25 22 20 17 14 13
0 1 4 8 8 9 10 12 13 13 15 19 25 30 35 39 42 44 43 42 42 42 44 46 47 48 48 44 39 36 34 33 33 34 32 28 26 26 23 21 19 17 16 15
4 7 12 13 13 13 15 18 19 21 23 25 30 34 36 38 41 43 44 43 42 42 43 44 43 43 42 38 35 34 34 35 35 33 30 27 26 24 21 19 18 16 16 15
13 17 20 18 16 18 20 22 25 28 30 32 35 37 37 36 38 41 42 42 41 40 39 37 36 35 35 33 32 32 33 34 32 27 24 23 22 18 16 15 14 14 13 13
22 24 26 25 24 25 26 28 32 35 35 35 35 36 36 35 35 36 38 40 39 36 33 30 29 29 30 31 31 31 31 31 27 20 17 17 15 12 11 10 10 10 11 11
27 29 32 33 33 32 32 34 37 39 39 37 35 34 34 34 34 34 37 40 38 33 30 28 27 27 28 30 30 30 29 28 23 16 13 13 12 10 9 8 6 6 7 7
30 31 34 36 36 35 34 36 39 41 41 41 38 35 33 33 35 36 38 41 39 34 31 29 29 27 27 28 29 29 28 24 18 13 12 12 11 10 9 7 4 3 3 2
29 29 31 33 34 32 32 34 37 40 42 41 39 35 33 35 37 38 38 38 36 32 29 28 28 26 25 25 26 26 24 19 13 12 14 14 12 11 10 8 5 3 1 0
25 26 28 30 29 28 28 30 34 37 38 37 34 32 33 36 37 35 34 32 29 26 24 23 23 22 21 21 21 20 18 14 11 12 14 14 12 11 9 8 6 4 2 1
25 26 28 28 26 25 26 28 31 31 31 30 28 28 31 33 33 31 29 28 26 24 21 20 19 19 18 18 17 15 13 11 10 10 11 11 10 9 7 6 4 3 3 3
21 24 25 25 25 25 25 27 27 25 25 25 25 25 27 29 30 30 28 27 26 25 22 19 18 17 17 16 15 13 11 8 8 9 9 8 6 5 4 4 3 3 3 3
16 18 20 22 24 25 25 25 24 22 21 23 23 23 26 28 29 29 28 27 26 25 22 18 15 14 14 13 13 11 9 7 6 6 6 4 4 3 3 2 2 2 2 2
13 14 16 19 23 25 25 24 23 21 19 20 22 24 27 29 29 28 27 25 24 21 18 15 13 12 11 11 11 10 7 5 5 4 3 2 2 2 1 1 1 1 1 1
10 11 12 15 20 23 22 22 21 19 17 19 21 23 25 27 27 25 23 21 18 16 13 12 12 11 10 8 8 8 6 4 2 1 1 0 1 1 0 0 0 0 0 0
7 8 9 12 16 19 19 19 18 16 16 18 19 20 21 23 22 21 18 16 13 12 11 10 10 10 8 6 5 7 6 4 1 0 0 0 0 0 0 0 0 0 0 0
9 9 10 12 15 17 19 18 16 16 16 16 15 15 16 16 15 15 14 12 10 9 9 9 8 6 5 3 4 5 6 4 2 1 0 0 0 0 0 0 0 0 0 0
14 13 13 15 17 18 18 17 16 15 15 15 12 10 10 10 10 10 9 8 6 6 6 7 4 2 1 2 3 4 4 4 3 2 1 0 0 0 0 0 0 0 0 0
16 15 16 18 18 17 17 15 14 13 13 13 10 7 6 6 7 7 6 5 4 4 4 4 2 0 1 2 3 3 3 3 3 3 2 1 0 0 0 0 0 0 0 0
16 17 17 18 17 16 15 13 11 11 11 10 7 6 5 4 4 5 5 4 3 3 3 3 1 0 1 2 3 3 3 3 3 3 3 1 0 0 0 0 0 0 0 0
14 15 16 15 14 14 13 12 11 10 10 8 6 5 5 4 4 4 4 3 3 3 3 3 2 1 1 2 3 3 3 3 3 3 3 2 1 0 0 0 0 0 0 0
11 13 15 13 12 12 11 11 11 10 11 10 7 5 4 4 4 4 4 3 3 3 3 3 3 2 2 2 2 3 3 3 3 3 3 2 1 0 0 0 0 0 0 0

GEFSNGP_con_probscp_210.txt.gz
Probability
0 0 0 0 0 0 0 1 3 8 14 18 21 25 30 32 34 39 48 54 58 63 65 63 57 53 51 50 52 50 44 43 45 43 40 37 33 30 28 27 26 26 26 27
0 0 0 0 0 1 1 2 5 10 16 20 21 25 30 32 34 40 46 53 60 66 68 64 59 55 53 52 54 51 46 44 45 44 41 37 35 33 32 32 30 29 28 28
0 0 0 0 1 3 4 5 7 13 18 21 23 28 34 36 36 39 45 53 63 69 68 65 61 57 54 52 53 52 49 47 46 44 41 38 36 36 37 37 36 33 30 29
0 0 0 0 1 3 5 7 11 16 17 17 23 32 38 40 40 41 46 54 61 63 62 61 59 56 52 50 50 52 52 49 45 43 41 38 37 38 40 40 39 36 32 29
0 0 0 1 2 2 5 10 15 17 16 14 19 29 38 43 45 48 51 56 58 56 56 59 59 56 52 49 49 52 52 47 43 41 39 38 40 40 40 40 38 35 30 26
0 0 0 1 3 3 7 16 21 20 18 19 23 32 40 44 48 53 56 57 55 54 57 61 61 57 53 49 48 50 49 45 42 41 39 40 42 43 40 37 35 31 26 23
0 0 1 4 6 8 16 25 27 23 24 28 34 42 45 45 48 54 56 55 54 54 57 59 59 57 54 49 45 44 46 47 45 42 39 40 42 43 39 33 29 27 24 21
3 5 10 13 14 17 25 30 28 26 28 33 40 46 47 45 47 52 54 54 54 53 54 55 56 56 53 48 42 41 45 48 46 41 37 36 38 38 34 28 24 23 21 20
10 14 22 23 21 23 28 27 24 26 29 32 39 45 47 47 47 50 51 52 53 52 53 54 55 55 51 46 42 41 43 45 43 39 36 34 34 32 27 23 20 19 19 19
17 20 23 22 21 24 26 26 25 26 28 31 38 45 49 51 50 50 50 51 50 52 53 55 55 52 47 43 42 42 42 42 41 39 36 33 30 26 22 19 18 17 17 17
20 21 20 19 20 22 25 29 30 30 31 35 41 46 49 52 51 49 50 50 51 51 53 54 52 47 43 41 41 40 39 38 38 37 35 30 24 20 16 15 15 15 14 14
24 23 21 21 22 23 26 30 32 34 37 42 47 49 48 47 48 48 48 49 50 50 50 50 48 44 41 41 41 41 39 37 34 32 31 26 19 15 11 9 9 9 9 10
29 27 24 23 24 27 29 31 33 35 40 47 51 49 44 42 45 46 46 46 46 46 46 45 43 42 41 41 41 41 39 35 30 25 24 22 18 15 11 8 5 3 4 5
29 28 26 25 28 32 33 34 35 37 41 47 48 44 39 39 43 45 44 42 41 40 40 40 39 39 39 38 38 37 34 30 25 20 20 20 19 17 13 10 6 3 2 1
25 25 25 27 30 32 33 36 38 40 43 45 43 38 36 38 41 42 41 39 37 35 35 37 38 38 37 36 35 33 29 24 20 17 17 19 20 18 15 12 9 6 3 2
23 22 23 25 27 28 30 35 38 41 43 43 39 35 35 36 38 37 36 35 34 33 35 36 35 34 34 34 33 31 26 19 16 15 17 19 20 18 15 11 8 6 4 3
22 23 24 25 25 26 28 32 36 39 41 39 36 34 33 33 32 32 31 31 32 32 33 32 30 28 29 29 29 27 23 16 12 14 17 19 19 17 15 11 7 5 5 4
20 22 24 25 27 28 29 31 33 36 37 35 33 32 31 30 29 29 27 28 29 29 29 27 25 25 25 25 24 23 21 17 13 14 15 16 16 15 13 10 7 6 5 6
19 19 21 24 27 29 31 32 34 34 33 31 30 28 28 28 28 28 26 25 25 26 26 23 21 21 22 22 20 20 18 16 14 13 11 10 10 11 10 8 6 5 6 6
16 17 18 21 24 27 30 32 32 32 31 28 27 25 24 24 26 27 27 26 25 26 25 21 17 16 18 18 17 16 15 13 12 11 9 8 7 7 8 6 4 3 4 4
15 15 17 20 22 23 26 27 27 28 27 26 24 23 21 20 23 28 28 26 24 23 21 19 16 15 16 16 15 15 14 12 11 10 10 9 7 6 6 6 4 2 1 1
16 17 18 20 21 20 20 20 21 22 23 22 21 20 19 19 21 24 24 20 17 15 15 16 15 14 14 14 15 14 13 12 12 11 10 10 8 5 5 5 3 1 0 0
20 20 20 21 22 20 18 17 18 20 21 20 19 19 20 20 19 18 16 12 9 8 9 10 9 9 9 11 13 13 12 13 12 11 9 9 7 5 4 4 2 1 1 1
23 23 23 23 23 22 20 19 19 20 20 19 19 19 19 19 16 13 10 6 4 4 4 4 3 4 6 8 10 11 11 12 11 9 7 6 5 4 4 4 4 3 3 2
22 23 24 23 22 21 19 18 18 18 17 17 17 16 15 16 14 11 8 4 1 1 1 1 1 3 6 8 9 9 9 9 8 6 5 4 4 4 5 6 6 5 4 4
19 20 21 20 18 16 14 12 12 13 13 14 14 12 11 11 11 10 8 4 1 1 1 2 2 4 6 7 8 8 7 5 5 4 4 4 4 5 6 6 6 5 5 4
17 17 18 17 13 12 9 7 8 10 12 13 12 9 8 8 10 9 7 5 2 1 2 3 3 5 5 5 6 6 5 4 3 3 3 4 5 6 6 5 4 4 4 4

GEFSNGP_con_probscp_216.txt.gz
Probability
0 0 0 1 1 2 3 5 9 14 18 20 21 22 23 26 28 29 28 27 26 25 23 21 22 26 29 28 24 21 20 18 15 11 9 8 7 7 8 9 9 8 6 4
0 0 1 2 3 5 7 9 13 17 18 19 22 25 26 26 28 28 27 28 30 30 27 24 24 26 29 29 24 20 18 16 13 11 9 9 9 8 8 8 8 8 6 5
0 0 1 2 3 6 9 12 15 17 17 17 20 24 26 27 27 26 24 27 33 35 33 30 28 29 30 29 25 19 15 13 11 10 10 10 11 11 9 8 9 9 8 7
0 0 1 1 2 5 9 13 15 15 15 17 20 23 25 26 26 24 23 26 31 33 33 34 33 31 30 29 24 19 15 13 11 10 11 12 13 14 13 11 11 11 9 8
0 0 0 1 2 5 12 18 18 15 16 19 22 24 24 23 24 25 25 26 26 26 29 33 33 30 29 27 23 19 17 16 13 12 14 15 15 16 15 14 13 12 9 8
0 0 1 3 5 6 12 19 20 18 18 19 20 21 20 20 23 25 24 22 21 21 25 29 30 30 30 28 25 24 23 20 18 17 17 16 15 15 14 14 13 11 9 7
0 0 2 5 6 6 8 13 18 20 20 18 18 18 18 19 22 22 20 17 14 16 21 24 26 30 32 32 31 31 30 26 22 19 16 14 12 12 11 12 12 11 9 8
0 1 2 5 7 6 7 9 14 18 19 19 20 20 20 20 21 19 15 12 10 12 17 20 23 28 32 32 33 34 33 28 23 19 15 12 10 9 9 9 11 11 9 7
3 4 5 7 8 8 8 10 12 15 18 20 22 23 23 21 19 17 14 10 9 11 14 17 21 25 27 29 30 30 28 24 21 19 17 13 10 7 7 8 10 10 8 6
7 7 8 9 9 9 11 13 14 16 20 23 23 24 23 21 18 16 14 12 11 11 13 14 18 21 22 23 24 24 23 21 21 21 21 16 10 7 6 7 8 9 7 6
7 8 9 9 8 9 12 17 19 21 25 26 25 24 23 22 20 16 12 12 12 12 12 13 15 16 15 16 19 21 21 21 22 22 21 17 11 7 6 5 5 5 6 7
7 6 7 8 7 9 14 19 22 25 28 28 26 25 25 24 23 19 14 13 13 13 13 13 14 12 10 12 17 20 22 22 22 22 20 16 10 7 5 3 2 2 3 5
6 7 9 10 10 12 16 20 22 25 28 29 27 27 26 24 24 22 19 17 16 16 16 15 13 11 10 11 15 19 21 22 21 19 18 14 9 6 6 4 2 1 1 1
6 8 11 13 15 16 17 18 21 24 26 27 26 25 24 22 22 22 21 20 19 18 17 14 12 10 9 10 13 16 18 18 17 15 14 11 8 6 6 6 5 4 2 0
5 7 10 13 16 16 15 16 19 22 25 25 23 21 20 19 20 20 20 18 17 15 14 12 11 10 9 8 9 11 12 12 12 10 9 8 7 6 6 6 6 6 3 2
4 6 9 12 13 13 14 16 18 22 24 24 21 18 16 17 19 19 18 15 11 10 10 10 10 10 9 8 6 5 6 6 6 6 6 6 7 7 7 6 6 6 5 4
4 6 8 11 13 14 15 18 20 23 24 23 21 17 14 14 16 16 13 10 7 6 7 8 9 9 10 8 6 4 4 4 3 4 5 6 6 7 7 6 6 6 6 4
4 5 8 11 14 15 17 19 21 22 22 21 20 18 15 13 12 10 8 6 5 4 5 5 6 7 9 8 6 6 6 6 5 5 6 6 6 7 7 6 6 6 5 4
5 7 9 12 15 16 17 18 20 21 21 20 19 18 15 12 9 8 5 3 2 2 2 2 2 4 7 8 7 6 7 8 8 7 8 8 7 7 6 6 6 6 4 4
9 11 13 15 17 17 17 18 18 18 19 19 18 16 13 10 7 6 4 1 0 1 1 1 1 2 5 7 7 7 7 9 9 9 9 9 9 8 7 7 6 5 4 3
15 15 16 17 18 17 16 17 16 15 15 16 15 13 11 7 5 4 3 1 0 0 0 0 1 2 4 6 7 7 7 8 10 10 10 10 9 8 8 8 6 4 3 3
17 16 16 17 17 16 16 15 14 12 11 10 10 9 8 6 4 3 2 1 0 0 0 0 1 2 3 5 8 8 7 8 10 9 9 8 8 7 7 7 6 4 3 2
14 14 13 14 14 14 14 13 11 10 8 7 6 5 5 5 5 4 2 1 0 0 0 0 0 1 3 6 8 9 9 10 10 9 7 6 6 6 5 4 3 2 1 1
11 11 11 11 11 12 12 11 8 7 6 5 4 3 3 4 4 3 2 1 0 0 0 0 0 0 2 5 7 8 9 10 10 7 6 5 4 4 3 2 1 1 0 0
10 10 10 10 10 11 11 9 7 6 6 5 4 4 4 3 3 3 2 1 0 0 0 0 0 0 2 3 3 4 5 7 7 6 6 5 4 4 3 2 1 1 1 1
9 9 9 9 9 10 10 9 7 7 7 6 6 5 5 4 3 3 2 1 0 0 0 0 0 0 1 1 1 1 2 4 4 4 5 6 6 5 4 2 2 2 2 2
8 8 8 8 8 9 9 9 8 8 8 8 7 6 5 4 3 2 1 0 0 0 0 0 0 0 0 0 0 0 1 3 3 4 4 5 6 6 4 2 1 2 3 3

GEFSNGP_con_probscp_222.txt.gz
Probability
1 1 2 4 4 3 2 3 5 8 9 7 6 5 6 7 9 13 16 16 15 13 12 11 11 12 14 15 13 11 9 6 4 3 2 1 1 1 1 1 3 4 4 4
2 2 3 5 5 4 4 6 8 10 8 5 4 4 4 4 7 10 14 15 15 14 12 11 12 14 15 16 14 11 9 7 4 2 1 0 0 1 0 0 2 3 3 4
2 1 2 3 3 4 6 8 10 10 7 4 3 3 3 4 5 7 11 14 14 13 11 11 13 15 16 17 16 14 12 10 8 5 3 2 2 2 1 0 0 1 1 2
1 0 1 1 1 3 6 7 7 8 8 7 7 7 8 9 9 9 11 12 12 10 8 8 12 15 17 18 18 17 15 15 15 12 8 6 5 4 2 1 0 0 0 1
0 0 0 1 1 2 5 5 5 8 11 12 11 11 12 11 11 11 12 12 10 7 5 6 10 14 17 18 17 16 16 17 18 16 12 8 7 6 5 3 1 1 1 1
0 0 0 0 0 1 2 3 5 9 13 14 12 10 11 9 8 10 12 13 11 7 5 7 11 15 17 17 16 15 15 16 17 16 14 11 10 9 7 4 3 3 3 3
0 0 0 0 0 0 0 2 5 8 11 12 9 7 8 7 6 7 10 12 11 9 8 9 14 17 17 16 16 15 14 15 16 16 15 14 13 12 8 6 6 6 5 5
0 0 0 0 0 0 1 2 6 8 9 9 8 8 7 7 6 6 8 10 10 10 10 11 14 17 18 17 17 16 15 15 17 17 15 14 14 11 9 7 7 6 6 6
1 0 0 0 1 1 3 5 8 9 9 9 10 9 7 6 6 6 7 9 9 9 10 10 12 15 17 17 18 19 18 17 18 18 17 15 14 11 10 8 7 6 6 6
2 1 1 1 1 3 5 7 9 11 11 11 11 9 7 6 5 6 7 9 9 9 8 8 9 11 13 15 17 18 18 17 17 17 17 17 16 13 11 10 8 7 7 6
2 2 1 1 1 3 6 8 10 11 11 10 9 8 6 5 5 6 7 8 8 8 6 5 7 8 10 13 15 16 15 14 13 14 15 17 17 14 11 9 8 7 6 6
1 1 1 0 1 3 6 9 10 11 10 7 8 8 7 5 5 6 8 8 8 7 4 3 5 7 9 10 12 13 12 10 10 12 14 15 16 14 10 7 5 3 4 5
0 1 2 2 3 5 7 11 12 11 8 6 8 9 9 8 8 9 9 9 7 5 3 3 5 7 8 8 8 10 9 7 8 11 13 14 13 12 9 5 2 2 2 2
1 3 5 6 7 8 10 12 12 10 6 5 7 8 9 10 10 10 10 8 7 4 4 5 5 6 7 7 7 8 9 7 7 8 10 11 10 9 7 4 3 3 2 2
2 5 7 9 10 10 11 12 12 9 5 5 5 5 7 9 9 9 8 8 7 5 5 7 7 7 8 7 7 8 9 8 7 6 6 7 7 5 3 3 3 4 5 5
5 6 8 10 11 11 10 10 10 7 6 5 4 4 5 7 8 8 8 8 7 6 6 8 8 8 8 7 7 7 7 7 5 4 4 4 4 3 1 1 2 4 5 6
6 7 8 9 10 10 9 8 7 7 7 7 6 6 6 8 9 9 7 6 5 4 4 5 6 6 5 5 5 5 5 4 4 3 3 3 3 2 1 0 1 2 3 4
6 6 6 6 7 8 8 8 6 6 7 8 8 8 7 8 9 9 7 5 4 3 2 2 2 2 2 2 3 3 3 3 3 3 3 3 3 2 0 0 0 1 2 3
6 6 5 4 5 6 7 7 6 5 7 9 10 9 8 8 8 7 6 4 2 1 1 0 0 0 0 0 1 1 1 3 3 3 3 3 3 2 1 0 0 0 2 4
6 6 5 4 4 5 5 5 5 5 8 10 10 8 7 7 7 6 4 2 1 0 0 0 0 0 0 0 0 0 1 2 2 2 2 3 3 3 2 1 1 0 1 2
5 5 5 4 4 4 5 6 6 7 10 11 10 8 7 6 6 5 3 1 0 0 0 0 0 0 0 0 0 0 0 1 1 0 1 2 2 2 2 2 1 0 0 1
5 6 6 6 5 6 7 8 9 11 12 12 9 7 6 6 5 3 1 0 0 0 0 0 0 0 0 0 0 0 0 0 0 0 0 1 1 1 1 1 1 0 1 2
5 6 7 8 7 9 10 11 12 13 13 11 8 6 5 4 4 2 1 0 0 0 0 0 0 0 0 0 0 0 0 0 0 0 0 0 0 0 0 0 0 1 3 4
4 5 7 8 9 10 11 12 12 12 11 8 5 4 4 3 3 2 1 0 0 0 0 0 0 0 0 0 0 0 0 0 0 0 0 0 0 0 0 1 1 2 4 5
3 4 7 8 9 10 11 11 11 10 8 5 4 3 3 3 2 1 0 0 0 0 0 0 0 0 0 0 0 0 0 0 0 0 0 0 0 1 1 2 3 3 4 4
3 4 6 7 8 9 10 10 9 8 6 4 3 2 2 2 1 0 0 0 0 0 0 0 0 0 0 0 0 0 0 0 0 0 0 0 0 1 2 2 2 2 3 4
3 4 4 5 6 8 9 10 9 7 6 4 2 1 1 1 0 0 0 0 0 0 0 0 0 0 0 0 0 0 0 0 0 0 0 0 0 1 1 1 1 1 2 3

GEFSNGP_con_probscp_228.txt.gz
Probability
0 0 1 1 2 2 2 2 3 5 9 12 14 16 16 17 19 22 22 23 23 22 22 22 22 24 24 23 20 17 15 14 12 10 8 5 3 3 4 5 6 7 6 6
0 0 1 2 3 3 3 3 4 5 9 12 14 16 17 19 21 21 20 22 23 21 21 22 23 25 27 26 23 20 16 14 13 13 10 7 5 5 6 7 8 9 7 6
0 0 1 2 3 4 5 5 5 7 10 13 16 18 20 22 21 18 18 21 22 20 20 22 23 25 29 30 27 24 19 16 16 16 15 12 11 11 12 13 14 14 11 9
0 0 0 1 3 5 6 5 6 8 11 15 19 21 22 21 19 18 20 21 20 17 18 22 24 26 29 31 30 27 22 18 19 20 19 17 18 19 20 20 20 19 16 13
0 0 0 0 1 3 4 5 7 10 14 18 21 21 21 20 18 21 25 24 20 17 19 23 26 28 29 30 30 28 23 21 22 24 23 23 23 23 24 25 23 21 17 13
0 0 0 1 2 2 3 6 10 14 18 21 21 21 24 23 22 25 27 26 24 23 23 25 27 28 28 27 27 27 24 23 26 28 27 26 25 24 25 24 22 18 14 11
1 0 2 4 4 4 7 11 15 19 23 26 26 27 29 29 29 28 27 26 26 26 25 25 26 27 26 25 24 24 24 25 29 30 28 26 25 24 23 22 20 17 14 12
3 3 5 8 9 9 12 16 18 22 28 33 34 33 32 31 31 28 25 25 26 25 25 26 28 29 27 24 23 25 27 28 31 31 28 27 27 25 23 21 19 17 16 14
7 7 9 11 11 11 14 17 19 23 30 35 36 34 32 30 29 26 25 24 23 22 24 28 31 32 29 26 26 28 31 32 32 31 29 28 29 28 25 23 20 18 17 15
13 11 11 11 10 11 14 17 20 22 27 30 30 30 31 31 29 27 26 23 19 17 21 27 31 31 30 29 28 30 32 32 30 29 28 27 27 27 26 25 22 20 17 14
16 15 13 11 10 11 14 18 20 20 21 23 24 25 29 31 31 30 28 25 20 17 18 23 27 29 29 29 27 28 29 28 26 25 26 25 22 21 22 22 21 19 15 13
19 18 17 15 13 13 14 17 19 18 18 20 22 24 26 29 30 30 30 29 24 20 19 22 25 27 28 29 27 26 26 25 24 24 24 24 21 18 17 15 14 12 10 9
20 20 19 16 15 14 14 15 17 18 19 21 22 22 24 27 28 29 31 32 28 23 22 23 25 27 28 28 28 26 24 23 22 23 23 23 22 19 15 11 8 5 4 3
17 17 17 16 14 13 13 14 16 17 19 20 19 18 20 24 25 27 29 32 31 26 24 22 22 25 26 27 28 25 22 21 21 21 21 22 22 20 16 12 9 6 3 1
13 13 14 14 14 12 11 12 14 15 16 17 17 16 17 20 20 22 26 29 28 25 22 20 19 20 23 25 25 23 20 19 19 19 19 19 19 17 14 13 11 9 6 4
10 10 12 13 13 12 11 9 10 11 13 15 17 19 20 19 16 18 21 23 23 21 19 19 18 19 23 24 23 22 19 16 15 16 16 17 16 13 12 12 11 10 7 6
8 8 9 10 11 12 11 9 8 9 11 14 18 22 23 20 17 17 20 21 21 19 18 19 18 19 22 24 22 20 17 13 12 13 14 14 12 11 11 12 11 10 8 7
5 5 6 7 9 10 9 9 9 9 11 14 17 21 24 23 21 20 22 23 22 20 19 19 18 18 19 20 19 17 13 10 9 10 10 10 9 9 11 12 11 10 8 6
4 4 5 6 7 7 7 8 8 9 11 14 18 21 23 24 24 24 24 24 23 22 21 19 17 16 14 13 13 12 9 7 6 7 7 6 6 7 9 10 10 8 6 5
7 7 7 6 5 5 6 7 8 9 10 14 18 21 22 23 24 25 25 23 22 22 20 17 15 13 10 7 7 7 6 5 5 5 5 6 6 6 7 8 7 6 6 5
9 9 9 7 6 6 6 7 8 9 10 13 18 20 19 20 23 25 25 24 22 19 16 13 12 9 5 3 2 3 5 5 5 4 4 5 6 6 6 5 4 4 5 5
10 10 9 9 9 9 9 8 9 10 12 13 16 18 17 19 22 23 24 23 20 15 12 11 8 4 2 1 1 2 4 5 5 4 3 3 3 4 3 3 3 3 4 4
10 10 10 10 11 12 12 11 11 12 13 13 14 16 17 18 20 20 20 18 14 10 10 9 4 1 0 1 1 2 3 3 4 3 3 2 1 2 1 1 2 3 3 3
11 11 10 10 11 12 13 13 13 14 14 13 14 15 16 17 18 18 15 12 7 5 6 4 1 0 0 1 1 1 1 2 3 3 3 2 1 0 0 0 1 2 3 3
14 13 11 10 11 12 12 12 13 14 14 14 14 16 16 16 17 16 14 10 5 3 2 1 0 0 0 0 0 0 0 1 2 3 3 2 1 0 1 1 1 2 3 3
12 12 12 12 12 13 12 12 13 14 14 14 15 16 16 16 15 14 12 10 6 2 1 1 1 0 0 0 0 0 1 1 2 2 2 1 0 0 1 1 1 2 3 3
9 11 12 13 13 13 11 11 12 13 14 15 16 16 16 15 14 12 11 9 6 3 2 2 1 0 0 0 0 1 2 2 2 2 1 0 0 0 1 1 1 2 2 2